Time,TemperatureF,DewpointF,PressureIn,WindDirection,WindDirectionDegrees,WindSpeedMPH,WindSpeedGustMPH,Humidity,HourlyPrecipIn,Conditions,Clouds,dailyrainin,SoftwareType,DateUTC
2013-08-20 00:08:00,66.6,66.0,30.12,SSE,163,0.0,0.0,97,0.00,,,0.00,weatherlink.com 1.10,2013-08-20 04:08:00,
2013-08-20 00:23:00,66.5,66.0,30.12,SSE,163,0.0,1.0,97,0.00,,,0.00,weatherlink.com 1.10,2013-08-20 04:23:00,
2013-08-20 00:38:00,66.4,66.0,30.12,SSE,163,0.0,0.0,97,0.00,,,0.00,weatherlink.com 1.10,2013-08-20 04:38:00,
2013-08-20 00:53:00,66.2,65.0,30.12,SSE,163,0.0,1.0,96,0.00,,,0.00,weatherlink.com 1.10,2013-08-20 04:53:00,
2013-08-20 01:08:00,66.3,66.0,30.12,SSE,163,0.0,1.0,97,0.00,,,0.00,weatherlink.com 1.10,2013-08-20 05:08:00,
2013-08-20 01:23:00,66.3,66.0,30.12,SSE,163,0.0,1.0,97,0.00,,,0.00,weatherlink.com 1.10,2013-08-20 05:23:00,
2013-08-20 01:38:00,66.2,65.0,30.11,SSE,163,1.0,1.0,97,0.00,,,0.00,weatherlink.com 1.10,2013-08-20 05:38:00,
2013-08-20 01:53:00,66.2,65.0,30.11,South,171,0.0,1.0,97,0.00,,,0.00,weatherlink.com 1.10,2013-08-20 05:53:00,
2013-08-20 02:08:00,66.1,65.0,30.11,South,177,0.0,1.0,97,0.00,,,0.00,weatherlink.com 1.10,2013-08-20 06:08:00,
2013-08-20 02:23:00,65.9,65.0,30.11,South,177,0.0,0.0,97,0.00,,,0.00,weatherlink.com 1.10,2013-08-20 06:23:00,
2013-08-20 02:38:00,65.9,65.0,30.10,South,177,0.0,1.0,97,0.00,,,0.00,weatherlink.com 1.10,2013-08-20 06:38:00,
2013-08-20 02:53:00,65.8,65.0,30.10,South,177,0.0,0.0,97,0.00,,,0.00,weatherlink.com 1.10,2013-08-20 06:53:00,
2013-08-20 03:08:00,65.8,65.0,30.10,South,177,0.0,0.0,97,0.00,,,0.00,weatherlink.com 1.10,2013-08-20 07:08:00,
2013-08-20 03:23:00,65.4,65.0,30.10,South,177,0.0,0.0,97,0.00,,,0.00,weatherlink.com 1.10,2013-08-20 07:23:00,
2013-08-20 03:38:00,65.5,65.0,30.10,South,177,0.0,0.0,97,0.00,,,0.00,weatherlink.com 1.10,2013-08-20 07:38:00,
2013-08-20 03:53:00,65.6,65.0,30.10,South,177,0.0,1.0,97,0.00,,,0.00,weatherlink.com 1.10,2013-08-20 07:53:00,
2013-08-20 04:08:00,65.6,65.0,30.10,South,177,0.0,1.0,97,0.00,,,0.00,weatherlink.com 1.10,2013-08-20 08:08:00,
2013-08-20 04:23:00,65.4,65.0,30.10,South,177,0.0,1.0,97,0.00,,,0.00,weatherlink.com 1.10,2013-08-20 08:23:00,
2013-08-20 04:38:00,65.2,64.0,30.10,South,177,0.0,2.0,97,0.00,,,0.00,weatherlink.com 1.10,2013-08-20 08:38:00,
2013-08-20 04:53:00,65.1,64.0,30.10,South,177,0.0,1.0,97,0.00,,,0.00,weatherlink.com 1.10,2013-08-20 08:53:00,
2013-08-20 05:08:00,64.7,64.0,30.10,South,177,0.0,1.0,97,0.00,,,0.00,weatherlink.com 1.10,2013-08-20 09:08:00,
2013-08-20 05:23:00,64.3,63.0,30.10,South,177,0.0,1.0,96,0.00,,,0.00,weatherlink.com 1.10,2013-08-20 09:23:00,
2013-08-20 05:38:00,64.4,64.0,30.10,South,177,0.0,2.0,97,0.00,,,0.00,weatherlink.com 1.10,2013-08-20 09:38:00,
2013-08-20 05:53:00,65.0,64.0,30.11,SSE,164,1.0,2.0,97,0.00,,,0.00,weatherlink.com 1.10,2013-08-20 09:53:00,
2013-08-20 06:08:00,65.2,64.0,30.11,North,5,1.0,2.0,97,0.00,,,0.00,weatherlink.com 1.10,2013-08-20 10:08:00,
2013-08-20 06:23:00,65.2,64.0,30.12,North,5,0.0,1.0,97,0.00,,,0.00,weatherlink.com 1.10,2013-08-20 10:23:00,
2013-08-20 06:38:00,65.4,65.0,30.12,North,5,0.0,1.0,97,0.00,,,0.00,weatherlink.com 1.10,2013-08-20 10:38:00,
2013-08-20 06:53:00,65.6,65.0,30.13,North,5,0.0,1.0,97,0.00,,,0.00,weatherlink.com 1.10,2013-08-20 10:53:00,
2013-08-20 07:08:00,65.7,65.0,30.13,SE,125,0.0,2.0,97,0.00,,,0.00,weatherlink.com 1.10,2013-08-20 11:08:00,
2013-08-20 07:23:00,65.8,65.0,30.13,SE,140,0.0,1.0,97,0.00,,,0.00,weatherlink.com 1.10,2013-08-20 11:23:00,
2013-08-20 07:38:00,66.0,65.0,30.13,SE,140,0.0,1.0,97,0.00,,,0.00,weatherlink.com 1.10,2013-08-20 11:38:00,
2013-08-20 07:53:00,66.2,65.0,30.14,SE,140,0.0,0.0,97,0.00,,,0.00,weatherlink.com 1.10,2013-08-20 11:53:00,
2013-08-20 08:08:00,66.3,66.0,30.14,SSE,150,0.0,1.0,97,0.00,,,0.00,weatherlink.com 1.10,2013-08-20 12:08:00,
2013-08-20 08:23:00,66.7,66.0,30.14,SSE,147,0.0,2.0,98,0.00,,,0.00,weatherlink.com 1.10,2013-08-20 12:23:00,
2013-08-20 08:38:00,66.8,66.0,30.14,SE,134,0.0,0.0,97,0.00,,,0.00,weatherlink.com 1.10,2013-08-20 12:38:00,
2013-08-20 08:53:00,67.1,66.0,30.15,SE,132,0.0,2.0,97,0.00,,,0.00,weatherlink.com 1.10,2013-08-20 12:53:00,
2013-08-20 09:08:00,67.7,67.0,30.15,ENE,67,0.0,2.0,97,0.00,,,0.00,weatherlink.com 1.10,2013-08-20 13:08:00,
2013-08-20 09:23:00,68.1,68.0,30.15,East,90,0.0,1.0,98,0.00,,,0.00,weatherlink.com 1.10,2013-08-20 13:23:00,
2013-08-20 09:38:00,68.4,68.0,30.16,ESE,116,0.0,2.0,97,0.00,,,0.00,weatherlink.com 1.10,2013-08-20 13:38:00,
2013-08-20 09:53:00,68.3,68.0,30.16,South,182,0.0,3.0,97,0.00,,,0.00,weatherlink.com 1.10,2013-08-20 13:53:00,
2013-08-20 10:08:00,68.5,68.0,30.17,SW,221,0.0,1.0,97,0.00,,,0.00,weatherlink.com 1.10,2013-08-20 14:08:00,
2013-08-20 10:23:00,68.9,68.0,30.17,NNE,33,0.0,2.0,96,0.00,,,0.00,weatherlink.com 1.10,2013-08-20 14:23:00,
2013-08-20 10:38:00,70.0,69.0,30.18,NNE,28,0.0,1.0,95,0.00,,,0.00,weatherlink.com 1.10,2013-08-20 14:38:00,
2013-08-20 10:53:00,71.9,69.0,30.17,ESE,103,0.0,2.0,90,0.00,,,0.00,weatherlink.com 1.10,2013-08-20 14:53:00,
2013-08-20 11:08:00,74.0,69.0,30.18,SSW,194,0.0,3.0,85,0.00,,,0.00,weatherlink.com 1.10,2013-08-20 15:08:00,
2013-08-20 11:23:00,76.2,70.0,30.17,North,5,2.0,3.0,82,0.00,,,0.00,weatherlink.com 1.10,2013-08-20 15:23:00,
2013-08-20 11:39:00,78.9,71.0,30.17,NW,320,0.0,3.0,76,0.00,,,0.00,weatherlink.com 1.10,2013-08-20 15:39:00,
2013-08-20 11:54:00,79.8,71.0,30.18,NE,35,0.0,2.0,75,0.00,,,0.00,weatherlink.com 1.10,2013-08-20 15:54:00,
2013-08-20 12:09:00,80.4,71.0,30.18,NNW,335,0.0,2.0,72,0.00,,,0.00,weatherlink.com 1.10,2013-08-20 16:09:00,
2013-08-20 12:24:00,80.7,71.0,30.18,SSW,194,0.0,3.0,73,0.00,,,0.00,weatherlink.com 1.10,2013-08-20 16:24:00,
2013-08-20 12:39:00,82.8,73.0,30.18,NNE,31,0.0,2.0,71,0.00,,,0.00,weatherlink.com 1.10,2013-08-20 16:39:00,
2013-08-20 12:54:00,83.4,72.0,30.18,SW,229,0.0,2.0,69,0.00,,,0.00,weatherlink.com 1.10,2013-08-20 16:54:00,
2013-08-20 13:09:00,83.4,71.0,30.17,South,188,2.0,3.0,67,0.00,,,0.00,weatherlink.com 1.10,2013-08-20 17:09:00,
2013-08-20 13:24:00,84.5,72.0,30.17,South,179,0.0,2.0,66,0.00,,,0.00,weatherlink.com 1.10,2013-08-20 17:24:00,
2013-08-20 13:39:00,85.5,73.0,30.17,SSW,205,1.0,1.0,67,0.00,,,0.00,weatherlink.com 1.10,2013-08-20 17:39:00,
2013-08-20 13:54:00,84.9,73.0,30.17,SW,220,0.0,2.0,67,0.00,,,0.00,weatherlink.com 1.10,2013-08-20 17:54:00,
2013-08-20 14:09:00,84.0,71.0,30.17,SSW,206,0.0,3.0,66,0.00,,,0.00,weatherlink.com 1.10,2013-08-20 18:09:00,
2013-08-20 14:24:00,84.6,71.0,30.16,South,171,3.0,5.0,63,0.00,,,0.00,weatherlink.com 1.10,2013-08-20 18:24:00,
2013-08-20 14:39:00,85.6,71.0,30.16,SSE,162,2.0,4.0,62,0.00,,,0.00,weatherlink.com 1.10,2013-08-20 18:39:00,
2013-08-20 14:54:00,85.2,71.0,30.15,South,179,0.0,3.0,62,0.00,,,0.00,weatherlink.com 1.10,2013-08-20 18:54:00,
2013-08-20 15:09:00,85.9,73.0,30.14,NE,50,1.0,3.0,65,0.00,,,0.00,weatherlink.com 1.10,2013-08-20 19:09:00,
2013-08-20 15:24:00,86.8,72.0,30.14,North,360,1.0,4.0,61,0.00,,,0.00,weatherlink.com 1.10,2013-08-20 19:24:00,
2013-08-20 15:39:00,86.9,73.0,30.12,NE,43,0.0,5.0,63,0.00,,,0.00,weatherlink.com 1.10,2013-08-20 19:39:00,
2013-08-20 15:54:00,85.3,71.0,30.13,South,171,0.0,3.0,63,0.00,,,0.00,weatherlink.com 1.10,2013-08-20 19:54:00,
2013-08-20 16:09:00,84.7,72.0,30.12,South,170,0.0,1.0,66,0.00,,,0.00,weatherlink.com 1.10,2013-08-20 20:09:00,
2013-08-20 16:24:00,84.8,72.0,30.11,WNW,292,1.0,2.0,65,0.00,,,0.00,weatherlink.com 1.10,2013-08-20 20:24:00,
2013-08-20 16:39:00,84.4,72.0,30.11,SW,229,0.0,1.0,67,0.00,,,0.00,weatherlink.com 1.10,2013-08-20 20:39:00,
2013-08-20 16:54:00,83.5,72.0,30.11,SW,215,0.0,2.0,69,0.00,,,0.00,weatherlink.com 1.10,2013-08-20 20:54:00,
2013-08-20 17:09:00,83.4,73.0,30.11,SSE,149,0.0,2.0,71,0.00,,,0.00,weatherlink.com 1.10,2013-08-20 21:09:00,
2013-08-20 17:24:00,82.4,73.0,30.11,South,180,0.0,3.0,72,0.00,,,0.00,weatherlink.com 1.10,2013-08-20 21:24:00,
2013-08-20 17:39:00,81.6,72.0,30.11,South,188,0.0,3.0,73,0.00,,,0.00,weatherlink.com 1.10,2013-08-20 21:39:00,
2013-08-20 17:54:00,81.5,73.0,30.11,South,185,0.0,2.0,75,0.00,,,0.00,weatherlink.com 1.10,2013-08-20 21:54:00,
2013-08-20 18:09:00,80.9,72.0,30.12,SSE,161,0.0,2.0,75,0.00,,,0.00,weatherlink.com 1.10,2013-08-20 22:09:00,
2013-08-20 18:24:00,80.3,72.0,30.11,ESE,110,1.0,2.0,76,0.00,,,0.00,weatherlink.com 1.10,2013-08-20 22:24:00,
2013-08-20 18:39:00,79.4,72.0,30.12,SSE,154,2.0,5.0,78,0.00,,,0.00,weatherlink.com 1.10,2013-08-20 22:39:00,
2013-08-20 18:54:00,78.4,71.0,30.12,SSW,193,0.0,3.0,78,0.00,,,0.00,weatherlink.com 1.10,2013-08-20 22:54:00,
2013-08-20 19:09:00,77.7,71.0,30.13,SSW,198,0.0,0.0,80,0.00,,,0.00,weatherlink.com 1.10,2013-08-20 23:09:00,
2013-08-20 19:25:00,76.9,71.0,30.13,SSW,198,0.0,0.0,82,0.00,,,0.00,weatherlink.com 1.10,2013-08-20 23:25:00,
2013-08-20 19:40:00,75.8,71.0,30.14,SSW,198,0.0,0.0,85,0.00,,,0.00,weatherlink.com 1.10,2013-08-20 23:40:00,
2013-08-20 19:55:00,74.8,71.0,30.14,SSW,198,0.0,1.0,87,0.00,,,0.00,weatherlink.com 1.10,2013-08-20 23:55:00,
2013-08-20 20:10:00,74.0,70.0,30.14,SSW,198,0.0,1.0,86,0.00,,,0.00,weatherlink.com 1.10,2013-08-21 00:10:00,
2013-08-20 20:25:00,73.6,70.0,30.14,SSW,198,0.0,1.0,88,0.00,,,0.00,weatherlink.com 1.10,2013-08-21 00:25:00,
2013-08-20 20:40:00,73.1,70.0,30.15,SSW,198,0.0,0.0,89,0.00,,,0.00,weatherlink.com 1.10,2013-08-21 00:40:00,
2013-08-20 20:55:00,72.5,70.0,30.14,SSW,198,0.0,0.0,90,0.00,,,0.00,weatherlink.com 1.10,2013-08-21 00:55:00,
2013-08-20 21:10:00,72.0,70.0,30.15,SSW,198,0.0,0.0,92,0.00,,,0.00,weatherlink.com 1.10,2013-08-21 01:10:00,
2013-08-20 21:25:00,71.5,69.0,30.15,SSW,198,0.0,0.0,92,0.00,,,0.00,weatherlink.com 1.10,2013-08-21 01:25:00,
2013-08-20 21:40:00,71.0,69.0,30.15,SSW,198,0.0,0.0,92,0.00,,,0.00,weatherlink.com 1.10,2013-08-21 01:40:00,
2013-08-20 21:55:00,70.6,69.0,30.15,SSW,198,0.0,0.0,93,0.00,,,0.00,weatherlink.com 1.10,2013-08-21 01:55:00,
2013-08-20 22:10:00,70.3,69.0,30.15,SSW,198,0.0,0.0,94,0.00,,,0.00,weatherlink.com 1.10,2013-08-21 02:10:00,
2013-08-20 22:25:00,70.0,68.0,30.16,SSW,198,0.0,0.0,94,0.00,,,0.00,weatherlink.com 1.10,2013-08-21 02:25:00,
2013-08-20 22:40:00,69.7,68.0,30.15,SSW,198,0.0,0.0,94,0.00,,,0.00,weatherlink.com 1.10,2013-08-21 02:40:00,
2013-08-20 22:55:00,69.5,68.0,30.16,SSW,198,0.0,0.0,95,0.00,,,0.00,weatherlink.com 1.10,2013-08-21 02:55:00,
2013-08-20 23:10:00,69.2,68.0,30.16,SSW,198,0.0,0.0,95,0.00,,,0.00,weatherlink.com 1.10,2013-08-21 03:10:00,
2013-08-20 23:25:00,69.2,68.0,30.16,SSW,198,0.0,0.0,95,0.00,,,0.00,weatherlink.com 1.10,2013-08-21 03:25:00,
2013-08-20 23:40:00,68.9,68.0,30.17,SSW,198,0.0,0.0,95,0.00,,,0.00,weatherlink.com 1.10,2013-08-21 03:40:00,
2013-08-20 23:55:00,68.6,67.0,30.17,SSW,198,0.0,0.0,95,0.01,,,0.01,weatherlink.com 1.10,2013-08-21 03:55:00,